Harbor Springs, MI

7:55 AM EDT on March 27, 2017 (GMT -0400)
Harbor Springs

Weather History for KMGN - June, 2013

Change the Weather History Date:

Tuesday, June 18, 2013

  Actual Average (KPLN) Record (KPLN)
Temperature  
Mean Temperature 56 °F -  
Max Temperature 68 °F 74 °F 93 °F (2007)
Min Temperature 43 °F 47 °F 30 °F (1958)
Degree Days  
Heating Degree Days 10    
Growing Degree Days 6 (Base 50)    
Moisture  
Dew Point 45 °F    
Average Humidity 67    
Maximum Humidity 96    
Minimum Humidity 36    
Precipitation  
Precipitation 0.00 in - - ()
Sea Level Pressure  
Sea Level Pressure 30.10 in    
Wind  
Wind Speed 5 mph (NE)    
Max Wind Speed 13 mph    
Max Gust Speed 20 mph    
Visibility 10 miles    
Events      
Averages and records for this station are not official NWS values.
T = Trace of Precipitation, MM = Missing Value Source: NWS Daily Summary

Daily Weather History Graph

Daily Weather History Graph

Search for Another Location

Airport or City:

Trip Planner

Search our weather history database for the weather conditions in past years. The results will help you decide how hot, cold, wet, or windy it might be!

Date:

Astronomy

Jun. 18, 2013 Rise Set
Actual Time 5:50 AM EDT 9:31 PM EDT
Civil Twilight 5:12 AM EDT 10:09 PM EDT
Nautical Twilight 4:22 AM EDT 10:59 PM EDT
Astronomical Twilight 3:13 AM EDT 12:08 AM EDT
Moon 4:03 PM EDT (6/18) 2:11 AM EDT (6/18)
Length of Visible Light 16h 56m
Length of Day
15h 40m
Waxing Gibbous, 70% of the Moon is Illuminated
Jun 18
Waxing Gibbous
Jun 23
Full
Jun 30
Last Quarter
Jul 8
New
Jul 15
First Quarter

Hourly Weather History & Observations

Time (EDT) Temp. Windchill Dew Point Humidity Pressure Visibility Wind Dir Wind Speed Gust Speed Precip Events Conditions
12:14 AM 50.7 °F - 49.1 °F 94% 30.04 in 10.0 mi North 6.9 mph - N/A   Scattered Clouds
12:35 AM 50.2 °F - 48.6 °F 94% 30.04 in 10.0 mi North 6.9 mph - N/A   Clear
12:55 AM 50.2 °F - 49.1 °F 96% 30.04 in 10.0 mi North 6.9 mph - N/A   Scattered Clouds
1:15 AM 49.1 °F - 47.8 °F 95% 30.03 in 10.0 mi NNE 4.6 mph - N/A   Scattered Clouds
1:35 AM 49.1 °F - 47.8 °F 95% 30.03 in 10.0 mi North 6.9 mph - N/A   Clear
1:55 AM 49.8 °F - 47.5 °F 92% 30.04 in 10.0 mi NNE 4.6 mph - N/A   Clear
2:15 AM 48.6 °F - 46.4 °F 92% 30.04 in 10.0 mi North 5.8 mph - N/A   Clear
2:35 AM 47.8 °F - 45.3 °F 91% 30.04 in 10.0 mi Calm Calm - N/A   Clear
2:54 AM 47.7 °F - 45.7 °F 93% 30.04 in 10.0 mi Calm Calm - N/A   Clear
3:15 AM 47.7 °F - 45.7 °F 93% 30.04 in 10.0 mi Calm Calm - N/A   Clear
3:35 AM 46.9 °F - 45.3 °F 94% 30.04 in 10.0 mi Calm Calm - N/A   Clear
3:55 AM 45.1 °F - 43.3 °F 93% 30.04 in 10.0 mi Calm Calm - N/A   Clear
4:15 AM 47.7 °F - 45.7 °F 93% 30.05 in 10.0 mi ENE 3.5 mph - N/A   Clear
4:34 AM 47.7 °F - 45.5 °F 92% 30.05 in 10.0 mi North 4.6 mph - N/A   Clear
4:55 AM 47.7 °F - 45.1 °F 91% 30.05 in 10.0 mi North 5.8 mph - N/A   Clear
5:15 AM 45.9 °F - 43.5 °F 92% 30.06 in 10.0 mi Calm Calm - N/A   Clear
5:34 AM 45.1 °F - 43.2 °F 93% 30.07 in 10.0 mi Calm Calm - N/A   Clear
5:55 AM 45.1 °F - 43.2 °F 93% 30.07 in 10.0 mi Calm Calm - N/A   Clear
6:15 AM 43.0 °F - 41.2 °F 93% 30.08 in 10.0 mi Calm Calm - N/A   Clear
6:35 AM 45.1 °F 43.7 °F 43.2 °F 93% 30.09 in 10.0 mi NNE 3.5 mph - N/A   Clear
6:55 AM 46.8 °F - 44.6 °F 92% 30.09 in 10.0 mi Calm Calm - N/A   Clear
7:15 AM 47.7 °F - 44.4 °F 89% 30.09 in 10.0 mi Calm Calm - N/A   Clear
7:35 AM 48.0 °F - 44.6 °F 88% 30.09 in 10.0 mi ENE 4.6 mph - N/A   Clear
7:55 AM 50.2 °F - 46.0 °F 86% 30.09 in 10.0 mi East 4.6 mph - N/A   Clear
8:15 AM 52.7 °F - 46.9 °F 81% 30.10 in 10.0 mi East 5.8 mph - N/A   Clear
8:35 AM 53.1 °F - 46.6 °F 79% 30.11 in 10.0 mi NE 6.9 mph - N/A   Clear
8:55 AM 55.0 °F - 47.7 °F 76% 30.11 in 10.0 mi ENE 6.9 mph - N/A   Clear
9:15 AM 55.4 °F - 47.7 °F 75% 30.11 in 10.0 mi ENE 6.9 mph - N/A   Clear
9:35 AM 57.7 °F - 49.5 °F 74% 30.12 in 10.0 mi East 5.8 mph - N/A   Clear
9:55 AM 57.9 °F - 49.1 °F 72% 30.12 in 10.0 mi ENE 3.5 mph - N/A   Clear
10:15 AM 59.0 °F - 49.8 °F 72% 30.12 in 10.0 mi ENE 5.8 mph - N/A   Clear
10:35 AM 59.4 °F - 50.0 °F 71% 30.13 in 10.0 mi ENE 6.9 mph - N/A   Scattered Clouds
10:55 AM 60.4 °F - 48.0 °F 64% 30.13 in 10.0 mi NNE 9.2 mph - N/A   Clear
11:15 AM 62.4 °F - 47.7 °F 58% 30.13 in 10.0 mi NE 6.9 mph - N/A   Clear
11:35 AM 62.1 °F - 46.9 °F 58% 30.12 in 10.0 mi ENE 6.9 mph - N/A   Clear
11:55 AM 64.6 °F - 46.4 °F 52% 30.12 in 10.0 mi ENE 6.9 mph 10.4 mph N/A   Clear
12:15 PM 64.8 °F - 46.0 °F 51% 30.13 in 10.0 mi NE 10.4 mph - N/A   Scattered Clouds
12:35 PM 66.0 °F - 45.0 °F 47% 30.13 in 10.0 mi East 10.4 mph 19.6 mph N/A   Scattered Clouds
12:54 PM 65.3 °F - 44.8 °F 47% 30.13 in 10.0 mi ENE 9.2 mph - N/A   Scattered Clouds
1:15 PM 64.4 °F - 44.1 °F 48% 30.13 in 10.0 mi East 10.4 mph - N/A   Scattered Clouds
1:35 PM 66.9 °F - 45.0 °F 45% 30.12 in 10.0 mi East 12.7 mph - N/A   Mostly Cloudy
1:54 PM 65.8 °F - 43.2 °F 44% 30.12 in 10.0 mi East 9.2 mph 16.1 mph N/A   Scattered Clouds
2:15 PM 65.3 °F - 41.0 °F 41% 30.11 in 10.0 mi ESE 8.1 mph - N/A   Scattered Clouds
2:35 PM 67.3 °F - 42.3 °F 40% 30.11 in 10.0 mi East 8.1 mph 17.3 mph N/A   Clear
2:54 PM 68.0 °F - 41.4 °F 38% 30.12 in 10.0 mi East 10.4 mph - N/A   Clear
3:15 PM 68.0 °F - 41.2 °F 38% 30.11 in 10.0 mi East 9.2 mph 17.3 mph N/A   Clear
3:35 PM 68.0 °F - 41.2 °F 38% 30.11 in 10.0 mi East 9.2 mph - N/A   Clear
3:54 PM 68.0 °F - 40.6 °F 37% 30.11 in 10.0 mi East 5.8 mph - N/A   Clear
4:15 PM 68.0 °F - 40.3 °F 36% 30.11 in 10.0 mi SE 5.8 mph - N/A   Clear
4:35 PM 68.0 °F - 40.3 °F 36% 30.11 in 10.0 mi NE 4.6 mph - N/A   Clear
4:54 PM 68.0 °F - 40.8 °F 37% 30.11 in 10.0 mi ENE 8.1 mph - N/A   Clear
5:15 PM 68.0 °F - 43.5 °F 41% 30.11 in 10.0 mi West 5.8 mph - N/A   Clear
5:35 PM 68.0 °F - 41.7 °F 38% 30.11 in 10.0 mi WSW 5.8 mph - N/A   Clear
5:54 PM 68.0 °F - 42.1 °F 39% 30.11 in 10.0 mi WSW 5.8 mph - N/A   Clear
6:15 PM 68.0 °F - 42.4 °F 39% 30.11 in 10.0 mi WSW 5.8 mph - N/A   Clear
6:35 PM 67.3 °F - 42.1 °F 40% 30.11 in 10.0 mi WSW 3.5 mph - N/A   Clear
6:54 PM 65.7 °F - 40.1 °F 39% 30.11 in 10.0 mi West 5.8 mph - N/A   Clear
7:15 PM 65.3 °F - 40.1 °F 40% 30.11 in 10.0 mi West 4.6 mph - N/A   Clear
7:35 PM 65.3 °F - 41.4 °F 42% 30.11 in 10.0 mi Calm Calm - N/A   Clear
7:54 PM 63.9 °F - 40.3 °F 42% 30.11 in 10.0 mi West 3.5 mph - N/A   Clear
8:15 PM 62.6 °F - 39.7 °F 43% 30.11 in 10.0 mi Calm Calm - N/A   Clear
8:35 PM 58.8 °F - 43.7 °F 57% 30.11 in 10.0 mi Calm Calm - N/A   Clear
8:54 PM 57.7 °F - 43.3 °F 59% 30.11 in 10.0 mi Calm Calm - N/A   Clear
9:15 PM 56.1 °F - 44.2 °F 64% 30.11 in 10.0 mi NNW 3.5 mph - N/A   Clear
9:35 PM 55.4 °F - 46.8 °F 73% 30.11 in 10.0 mi South 3.5 mph - N/A   Clear
9:55 PM 55.4 °F - 46.4 °F 72% 30.11 in 10.0 mi Calm Calm - N/A   Clear
10:15 PM 55.4 °F - 44.8 °F 67% 30.11 in 10.0 mi Calm Calm - N/A   Clear
10:34 PM 52.7 °F - 44.1 °F 72% 30.12 in 10.0 mi Calm Calm - N/A   Clear
10:55 PM 52.7 °F - 43.5 °F 71% 30.12 in 10.0 mi Calm Calm - N/A   Clear
11:15 PM 50.7 °F - 43.3 °F 76% 30.13 in 10.0 mi Calm Calm - N/A   Clear
11:34 PM 50.2 °F - 43.2 °F 77% 30.13 in 10.0 mi Calm Calm - N/A   Clear
11:55 PM 50.0 °F - 43.0 °F 77% 30.12 in 10.0 mi Calm Calm - N/A   Clear